User: anonymous   Login
Location: Arrakis Observatory
(44.1122°N, 95.7153°W)
Time: 13:59:26
(UTC-05:00)
Language:

Coronas F rocket - Orbit

View from above orbital plane
View from above orbital plane
View from above satellite
View from above satellite

Ground track
Ground track

The orbit data is extracted from the following two-line orbital elements,

1 26874U 01032B   15245.50563319  .00010907  00000-0  99585-4 0  9999
2 26874  82.4635 234.6881 0009691 200.6895 159.3974 15.67600624790230
Epoch (UTC): 02 September 2015 12:08:06
Eccentricity: 0.0009691
inclination: 82.4635°
perigee height: 359 km
apogee height: 372 km
right ascension of ascending node: 234.6881°
argument of perigee: 200.6895°
revolutions per day: 15.67600624
mean anomaly at epoch: 159.3974°
orbit number at epoch: 79023

The dashed part of the orbit path shows where the satellite is in the earth's shadow,  

DLR